Deer Lodge (38S)
Deer Lodge, MT
Field Elevation: 4692
Lat: 49°23.27N  Long: 112°45.89W
CTAF/Unicom Freq: 120.0250
   
     For Weather-by-Phone, call 406-846-1177
Weather Advisories
3/4/2015 00:01 Z
Altimeter 29.99" Hg
Wind 020° @ 4 KT
Gusts --
Visibility 10 SM
Temperature -7° C (19° F)
Dewpoint -16° C (3° F)
Relative Humidity 45%
Density Altitude --
Condensation Altitude 9,400 feet
Wind Chill -11° C (12° F)
  Wind and Runways
Indicated Runway = 31
History
 
 
More Info
All DigiWx sites map
Weather Radar
NOAA Forecast
 
Airport IQ 5010
(S59) Libby
(6S5) Ravalli County
 
about DigiWx
 
FAA Disclaimer: The data displayed is for advisory purposes only and is not to be used for flight planning or operations. For official data, please call 406-846-1177 to hear the current automated AWOS voice message.
  METAR 38S 040001Z AUTO 02004KT 10SM M07/M16 A2999